Newburgh, NY

6:40 PM EDT on October 19, 2019 (GMT -0400)
Stewart International

Weather History for KSWF - September, 2019

Change the Weather History Date:

Thursday, September 19, 2019

  Actual Average Record
Temperature  
Mean Temperature 55 °F -  
Max Temperature 69 °F 70 °F 84 °F (2005)
Min Temperature 41 °F 50 °F 34 °F (1973)
Degree Days  
Heating Degree Days 10    
Growing Degree Days 5 (Base 50)    
Moisture  
Dew Point 43 °F    
Average Humidity 68    
Maximum Humidity 100    
Minimum Humidity 33    
Precipitation  
Precipitation 0.00 in - - ()
Sea Level Pressure  
Sea Level Pressure 30.33 in    
Wind  
Wind Speed 1 mph (West)    
Max Wind Speed 6 mph    
Max Gust Speed -    
Visibility 14 miles    
Events      
Averages and records for this station are not official NWS values.
T = Trace of Precipitation, MM = Missing Value Source: NWS Daily Summary

Daily Weather History Graph

Daily Weather History Graph

Search for Another Location

Airport or City:

Astronomy

Sep. 19, 2019 Rise Set
Actual Time 6:40 AM EDT 6:59 PM EDT
Civil Twilight 6:12 AM EDT 7:26 PM EDT
Nautical Twilight 5:40 AM EDT 7:59 PM EDT
Astronomical Twilight 5:06 AM EDT 8:32 PM EDT
Moon 10:03 PM EDT 11:44 AM EDT
Length of Visible Light 13h 14m
Length of Day
12h 18m
Waning Gibbous, 74% of the Moon is Illuminated
Sep 19
Waning Gibbous
Sep 21
Last Quarter
Sep 28
New
Oct 5
First Quarter
Oct 13
Full

Hourly Weather History & Observations

Time (EDT) Temp. Windchill Dew Point Humidity Pressure Visibility Wind Dir Wind Speed Gust Speed Precip Events Conditions
1:45 AM 46.4 °F - 46.4 °F 100% 30.36 in 10.0 mi Calm Calm - N/A   Clear
2:45 AM 46.4 °F - 44.6 °F 93% 30.34 in 10.0 mi Calm Calm - N/A   Clear
3:45 AM 44.6 °F - 44.6 °F 100% 30.34 in 10.0 mi Calm Calm - N/A   Clear
4:45 AM 44.6 °F - 44.6 °F 100% 30.34 in 10.0 mi Calm Calm - N/A   Clear
5:45 AM 42.8 °F 40.1 °F 42.8 °F 100% 30.34 in 10.0 mi Variable 4.6 mph - N/A   Clear
6:45 AM 41.0 °F 38.0 °F 41.0 °F 100% 30.35 in 10.0 mi Variable 4.6 mph - N/A   Clear
7:45 AM 42.8 °F - 42.8 °F 100% 30.36 in 10.0 mi Calm Calm - N/A   Clear
8:45 AM 50.0 °F - 48.2 °F 94% 30.38 in 10.0 mi Calm Calm - N/A   Clear
9:45 AM 57.2 °F - 50.0 °F 77% 30.39 in 20.0 mi Calm Calm - N/A   Clear
10:45 AM 59.0 °F - 44.6 °F 59% 30.38 in 20.0 mi Calm Calm - N/A   Clear
11:45 AM 62.6 °F - 41.0 °F 45% 30.36 in 20.0 mi Calm Calm - N/A   Clear
12:45 PM 64.4 °F - 41.0 °F 42% 30.34 in 20.0 mi Calm Calm - N/A   Clear
1:45 PM 68.0 °F - 41.0 °F 37% 30.32 in 20.0 mi Calm Calm - N/A   Clear
2:45 PM 68.0 °F - 39.2 °F 35% 30.32 in 20.0 mi Calm Calm - N/A   Clear
3:45 PM 69.8 °F - 39.2 °F 33% 30.30 in 20.0 mi WSW 5.8 mph - N/A   Clear
4:45 PM 69.8 °F - 39.2 °F 33% 30.30 in 20.0 mi Variable 4.6 mph - N/A   Clear
5:45 PM 69.8 °F - 39.2 °F 33% 30.29 in 10.0 mi WNW 5.8 mph - N/A   Clear
6:45 PM 66.2 °F - 37.4 °F 35% 30.29 in 10.0 mi WNW 5.8 mph - N/A   Clear
7:45 PM 57.2 °F - 42.8 °F 59% 30.28 in 10.0 mi Calm Calm - N/A   Clear
8:45 PM 55.4 °F - 42.8 °F 63% 30.27 in 10.0 mi Calm Calm - N/A   Clear
9:45 PM 50.0 °F - 42.8 °F 76% 30.28 in 10.0 mi West 5.8 mph - N/A   Clear
10:45 PM 51.8 °F - 44.6 °F 76% 30.28 in 10.0 mi West 5.8 mph - N/A   Clear
11:45 PM 50.0 °F - 44.6 °F 82% 30.28 in 10.0 mi Calm Calm - N/A   Clear